Вернуться в каталог

DELTA 4 R/B

АктивенHEO
NORAD 29156·ROCKET BODY·🇺🇸 United States

Запущен May 24, 2006 с Cape Canaveral Space Force Station

Loading…

Ближайшие Пролёты (ближайшие 24 часа)

TLE

СвежийSource: Space-Track

Эпоха: Sep 14, 2026, 08:25 UTC

1 29156U 06018B   26257.35116502 -.00000146  00000-0  00000-0 0  9995
2 29156  11.9721 256.4225 5253056  54.8483  48.0502  1.93077246143196

Отслеживайте DELTA 4 R/B в реальном времени с AllMySat

Download on the App Store